Location: Cheching
(60.0667°N, 164.2167°W)
Time: 13:16:35
(UTC+00:00)

STRAND 1 - Pass Details

Date: 21 January 2021
Orbit: 768 x 780 km, 98.4° (Epoch: 04 March)

Event Time Altitude Azimuth Distance (km) Brightness Sun altitude
Rises 17:25:14 0° 174° (S) 3,236 ? -15.0°
Reaches altitude 10° 17:27:34 10° 178° (S) 2,315 ? -14.7°
Maximum altitude 17:32:36 58° 258° (WSW) 901 ? -14.1°
Drops below altitude 10° 17:37:42 10° 338° (NNW) 2,338 ? -13.4°
Enters shadow 17:39:45 - 342° (NNW) 3,144 ? -13.2°
